Flag for U.S.A. Weather past 2 weeks in Irvine, California, U.S.A.

Now
73 °F

Passing clouds.


Feels Like: 75 °F
Forecast: 67 / 82 °F
Wind: 5 mph from West

Location: John Wayne Airport-Orange County Airport

Current Time: Sep 2, 2014 at 11:01:41 PM

Latest Report: Sep 2, 2014 at 9:53 PM


Visibility: 9 mi

Pressure: 29.80 "Hg

Humidity: 74%

Dew point: 64 °F

Location of IrvineLocation

Historic Weather in Irvine — Graph

°F

Irvine temperature yesterday

Maximum temperature yesterday: 81 °F (at 11:53 AM)
Minimum temperature yesterday: 71 °F (at 6:53 AM)
Average temperature yesterday: 75 °F

Past Weeks' High & Low Weather Summary

 TemperatureHumidityPressure
High92 °F (Aug 27, 11:53 AM)81% (Aug 22, 2:53 AM)30.03 "Hg (Aug 22, 2:53 AM)
Low68 °F (Aug 23, 5:53 AM)23% (Aug 27, 4:53 PM)29.74 "Hg (Aug 30, 5:53 PM)
Average75 °F62%29.88 "Hg
* Reported Aug 18 9:53 PM — Sep 2 9:53 PM, Irvine, Weather by CustomWeather, © 2014

Note: Actual official high and low records may vary slightly from our data, if they occured in-between our weather recording intervals... More about our weather records

Advertising

Irvine weather history for previous 24 hours

 ConditionsComfort  
Time TempWeatherWind HumidityBarometerVisibility
9:53 PM
Sep 2
73 °FPassing clouds.5 mph74%29.80 "Hg9 mi
8:53 PM74 °FPassing clouds.6 mph71%29.79 "Hg10 mi
7:53 PM75 °FPassing clouds.6 mph69%29.77 "Hg10 mi
6:53 PM76 °FPassing clouds.6 mph67%29.76 "Hg10 mi
5:53 PM78 °FPassing clouds.8 mph62%29.77 "Hg10 mi
4:53 PM80 °FPassing clouds.7 mph56%29.76 "Hg10 mi
3:53 PM81 °FPassing clouds.12 mph54%29.78 "Hg10 mi
2:53 PM80 °FPassing clouds.7 mph56%29.78 "Hg10 mi
1:53 PM82 °FPassing clouds.13 mph51%29.81 "Hg10 mi
12:53 PM82 °FPassing clouds.10 mph51%29.82 "Hg10 mi
11:53 AM80 °FPassing clouds.8 mph54%29.83 "Hg10 mi
10:53 AM79 °FScattered clouds.3 mph52%29.84 "Hg10 mi
9:53 AM77 °FPassing clouds.No wind56%29.85 "Hg10 mi
8:53 AM74 °FScattered clouds.7 mph62%29.85 "Hg10 mi
7:53 AM73 °FPartly sunny.6 mph64%29.85 "Hg10 mi
6:53 AM72 °FPassing clouds.5 mph68%29.85 "Hg10 mi
5:53 AM71 °FPassing clouds.6 mph71%29.85 "Hg10 mi
4:53 AM73 °FPassing clouds.5 mph66%29.83 "Hg10 mi
3:53 AM73 °FOvercast.5 mph69%29.83 "Hg10 mi
2:53 AM73 °FOvercast.8 mph69%29.83 "Hg10 mi
1:53 AM72 °FOvercast.7 mph73%29.83 "Hg10 mi
12:53 AM72 °FOvercast.8 mph73%29.83 "Hg10 mi
11:53 PM
Sep 1
71 °FClear.6 mph76%29.82 "Hg10 mi
Weather by CustomWeather, © 2014

See weather overviewHow to use our weather pages